Location: Tucson
(32.2217°N, 110.9265°W)
Time: 14:21:14
(UTC-07:00)

Envisat - Visible Passes

Search period start: 20 February 2018 00:00
Search period end: 02 March 2018 00:00
Orbit: 764 x 766 km, 98.2° (Epoch: 19 February)

Date Brightness Start Highest point End Pass type
(mag) Time Alt. Az. Time Alt. Az. Time Alt. Az.
20 Feb 3.9 19:10:27 10° SE 19:14:38 27° ENE 19:18:50 10° NNE visible
20 Feb 4.8 20:49:13 10° SSW 20:53:30 27° W 20:57:49 10° NW visible
21 Feb 4.8 18:36:49 10° E 18:38:19 11° ENE 18:39:49 10° NE visible
21 Feb 3.2 20:11:39 10° S 20:16:41 68° WSW 20:21:45 10° NNW visible
22 Feb 3.1 19:35:11 10° SSE 19:40:03 49° ENE 19:44:56 10° N visible
22 Feb 5.7 21:16:31 10° SW 21:19:15 15° W 21:22:02 10° WNW visible
23 Feb 4.2 18:59:53 10° ESE 19:03:36 21° ENE 19:07:19 10° NNE visible
23 Feb 4.4 20:37:42 10° SSW 20:42:19 36° W 20:46:58 10° NNW visible
24 Feb 2.9 20:00:29 10° SSE 20:05:33 88° WSW 20:10:40 10° NNW visible
25 Feb 3.4 19:24:19 10° SE 19:28:58 38° ENE 19:33:38 10° N visible
25 Feb 5.4 21:04:29 10° SW 21:08:02 19° W 21:11:37 10° NW visible
26 Feb 4.5 18:49:30 10° ESE 18:52:35 16° ENE 18:55:39 10° NNE visible
26 Feb 3.9 20:26:18 10° S 20:31:10 46° W 20:36:02 10° NNW visible
27 Feb 2.8 19:49:24 10° SSE 19:54:26 71° ENE 19:59:30 10° N visible
28 Feb 3.8 19:13:35 10° SE 19:17:55 29° ENE 19:22:15 10° NNE visible
28 Feb 5.0 20:52:43 10° SSW 20:56:50 25° W 21:00:58 10° NW visible
01 Mar 3.4 20:15:01 10° S 20:20:00 61° W 20:25:02 10° NNW visible
